Location: Bern�tre
(50.1974°N, 2.0915°E)
Time: 15:29:05
(UTC+00:00)

Cosmos 494 Rocket - Pass Details

Date: 18 September 2020
Orbit: 741 x 771 km, 74.1° (Epoch: 24 October)

Event Time Altitude Azimuth Distance (km) Brightness Sun altitude
Rises 19:55:51 0° 336° (NNW) 3,244 8.1 -19.0°
Reaches altitude 10° 19:58:14 10° 337° (NNW) 2,317 7.2 -19.3°
Maximum altitude 20:03:31 81° 65° (ENE) 786 3.9 -20.1°
Enters shadow 20:05:35 38° 149° (SSE) 1,162 4.5 -20.4°
